Location: Alt?nyaka
(36.5586°N, 30.3483°E)
Time: 00:39:14
(UTC+00:00)

Daily predictions for brighter satellites

Satellite Brightness Start Highest point End
(mag) Time Altitude Azimuth Time Altitude Azimuth Time Altitude Azimuth
COSMOS 2428 4.0 01:04:16 10° N 01:09:33 38° ENE 01:14:49 10° SE
CZ-2C R/B 3.9 01:15:02 10° NNE 01:17:30 30° NNE 01:17:30 30° NNE
ATLAS 3B R/B 3.6 01:27:31 38° S 01:27:31 38° S 01:32:01 10° SSE
Cosmos 44 Rocket 4.1 01:26:28 49° E 01:26:28 49° E 01:30:55 10° NE
BREEZE-M DEB (TANK) 3.6 01:33:36 80° NW 01:33:38 80° NNW 01:46:36 10° NE
CZ-2C R/B 4.4 01:35:43 10° N 01:38:52 31° NNW 01:38:52 31° NNW
Meteor 1-11 Rocket 4.2 01:43:25 10° N 01:49:19 65° E 01:55:14 10° SSE
Cosmos 1867 3.5 01:52:32 34° NNW 01:55:01 89° ENE 02:00:28 10° SSE
Cosmos 1244 Rocket 4.4 01:54:59 55° SW 01:56:04 63° W 02:02:20 10° N
GP-B 3.5 02:00:52 49° NNW 02:00:52 49° NNW 02:04:10 10° N
Meteor 1-10 Rocket 4.2 02:02:12 56° W 02:02:23 56° W 02:07:50 10° N
NOAA 11 4.1 01:57:29 10° NNE 02:03:00 85° WNW 02:06:06 27° SSW
NOSS 3-1 (A) 4.2 01:55:55 10° NW 02:03:44 62° WSW 02:12:44 10° SSE
Sich 1 2.8 02:00:34 10° N 02:09:16 10° S 02:04:47 77° WNW
H-2A R/B 4.3 02:00:41 10° NE 02:05:08 25° E 02:09:30 10° SSE
Cosmos 1484 Rocket 2.7 02:05:21 10° NNE 02:08:59 71° ESE 02:09:41 53° SSE
BlueWalker 3 2.3 02:13:43 40° NNW 02:14:52 60° NE 02:18:40 10° ESE
Cosmos 2297 Rocket 2.1 02:13:12 32° SSW 02:15:54 74° WNW 02:21:34 10° NNE
Cosmos 2344 3.8 02:08:41 10° SSW 02:16:42 66° ESE 02:23:54 10° NE
Envisat 3.3 02:12:38 10° N 02:17:23 41° WNW 02:17:37 41° W
Cosmos 2219 4.3 02:20:49 10° S 02:26:11 46° ESE 02:31:33 10° NE
Cosmos 2237 Rocket 2.5 02:25:23 10° NNW 02:31:03 68° ENE 02:36:40 10° SSE
Cosmos 1939 Rocket 4.3 02:27:34 10° NNE 02:31:13 38° E 02:34:54 10° SSE
Cosmos 1536 4.3 02:30:36 10° NNW 02:39:26 - SSW 02:32:05 20° NW
OAO 2 Rocket 4.5 02:36:29 23° SW 02:37:31 25° SSW 02:41:31 10° SSE
Delta 2 Rocket 4.5 02:36:56 28° WSW 02:38:44 37° SSW 02:43:28 10° SE
SL-16 R/B 4.5 02:35:46 10° N 02:40:24 25° ENE 02:45:00 10° ESE
Okean 1 3.8 02:40:42 32° W 02:41:15 34° W 02:44:47 10° NNW
Nadezhda 1 Rocket 4.0 02:44:15 10° NNW 02:50:21 57° W 02:56:20 10° SSW
H-2A R/B 2.6 02:48:49 10° N 02:52:11 49° WNW 02:55:32 10° SSW
Cosmos 1726 2.0 02:48:48 10° N 02:52:14 78° E 02:55:39 10° S
IRS-1C 4.1 02:47:11 10° N 02:52:29 67° WNW 02:57:45 10° SSW
NOSS 0 Rocket 4.1 02:46:38 10° NW 02:52:37 49° WSW 02:58:33 10° S
Cosmos 1975 3.6 02:48:59 10° N 02:52:52 54° E 02:56:45 10° SSE
COSMOS 2428 3.5 02:48:53 10° NW 02:53:34 27° WSW 02:58:14 10° SSW
USA 215 3.2 02:47:13 10° SE 02:53:47 82° SW 03:00:23 10° NW
ERS-2 1.6 02:51:35 10° NNE 02:54:44 88° ESE 02:57:52 10° SSW
Cosmos 1151 Rocket 4.3 02:54:46 20° W 02:55:39 21° WNW 02:59:01 10° NNW
CZ-2C R/B 4.2 02:55:29 10° NW 02:56:50 12° WNW 02:56:50 12° WNW
Cosmos 2227 Rocket 2.3 02:57:14 10° SW 03:02:45 53° WNW 03:08:18 10° NNE
Cosmos 1515 Rocket 3.5 02:58:59 10° S 03:03:23 87° W 03:07:46 10° N
Meteor 2-20 Rocket 4.5 02:59:13 10° NNW 03:05:15 58° W 03:11:02 10° S
Cosmos 2263 Rocket 3.3 03:00:28 10° S 03:05:50 48° ESE 03:11:11 10° NE
Cosmos 1328 Rocket 4.1 03:02:25 10° SW 03:06:28 35° WNW 03:10:30 10° NNW
COSMO-SKYMED 1 3.1 03:03:33 10° SSE 03:07:50 63° ENE 03:12:08 10° N
ARIANE 5 R/B 2.6 03:03:54 10° N 03:08:42 49° WNW 03:13:29 10° SW
Cosmos 1666 Rocket 4.1 03:07:04 10° NNW 03:11:01 34° W 03:14:55 10° SSW
Cosmos 1733 3.0 03:07:21 10° N 03:11:01 72° W 03:14:40 10° S
Helios 1B rocket 3.4 03:10:47 10° NNE 03:14:39 49° E 03:18:30 10° S
Cosmos 1933 Rocket 4.2 03:12:49 10° N 03:17:07 61° E 03:21:23 10° SSE
Cosmos 1709 Rocket 4.4 03:13:24 10° SSW 03:19:25 43° WNW 03:25:27 10° N
Helios 1A 3.7 03:16:52 10° SSW 03:20:26 29° W 03:24:02 10° NW
CZ-2D R/B 3.9 03:18:44 10° N 03:22:52 44° WNW 03:27:01 10° SW
Cosmos 1269 Rocket 4.4 03:22:23 10° NNW 03:27:18 40° WSW 03:32:10 10° S
Cosmos 2082 3.7 03:22:03 10° SSW 03:27:43 88° WNW 03:33:24 10° NNE
Cosmos 1238 4.4 03:24:50 10° NNW 03:27:44 46° W 03:30:48 10° SSW
Meteor 2-4 Rocket 4.1 03:23:28 10° SSW 03:29:06 45° WNW 03:34:42 10° N
Cosmos 1140 Rocket 4.0 03:31:11 10° NNW 03:36:24 67° ENE 03:41:36 10° SSE
